Location: Casteau
(50.5142°N, 4.0161°E)
Time: 06:28:20
(UTC+00:00)

Cosmos 372 Rocket - Pass Details

Date: 18 September 2020
Orbit: 739 x 767 km, 74.1° (Epoch: 27 October)

Event Time Altitude Azimuth Distance (km) Brightness Sun altitude
Rises 18:44:04 0° 177° (S) 3,223 7.1 -9.3°
Reaches altitude 10° 18:46:35 10° 169° (SSE) 2,300 6.2 -9.7°
Maximum altitude 18:51:20 37° 103° (ESE) 1,186 4.5 -10.4°
Drops below altitude 10° 18:56:06 10° 38° (NE) 2,306 6.3 -11.1°
Sets 18:58:37 0° 30° (NNE) 3,232 7.1 -11.5°
